Overview Statistics Trail Chart Weather Telemetry Raw packets
 

This is the latest recevied weather packets stored in our database for station/object KE8WMS. If no packets are shown the sender has not sent any weather packets the latest 10 day(s).

<< 94 95 96 97 98 99 100 >>
Time Temp. Humidity Pressure Rain* Wind** Luminosity Snow
1777127638 7.78° C 99% 1007.4 hPa 0 mm - 105 W/m² -
1777127334 7.78° C 99% 1007.5 hPa 0 mm - 105 W/m² -
1777127030 7.78° C 99% 1007.3 hPa 0 mm - 106 W/m² -
1777126726 7.78° C 99% 1007.5 hPa 0 mm - 124 W/m² -
1777126423 7.78° C 99% 1007.1 hPa 0 mm - 126 W/m² -
1777126118 7.78° C 99% 1007 hPa 0 mm - 109 W/m² -
1777125814 7.78° C 99% 1007 hPa 0 mm - 88 W/m² -
1777125511 7.78° C 99% 1007.2 hPa 0 mm - 101 W/m² -
1777125206 7.78° C 99% 1006.9 hPa 0 mm - 131 W/m² -
1777124901 7.78° C 99% 1006.9 hPa 0 mm - 130 W/m² -
1777124598 7.78° C 99% 1006.8 hPa 0 mm - 97 W/m² -
1777124294 7.78° C 99% 1006.6 hPa 0 mm - 97 W/m² -
1777123991 7.78° C 99% 1006.6 hPa 0 mm - 89 W/m² -
1777123688 7.78° C 99% 1006.5 hPa 0 mm - 83 W/m² -
1777123384 8.33° C 99% 1006.6 hPa 0 mm - 88 W/m² -
1777123080 8.33° C 99% 1006.3 hPa 0 mm - 87 W/m² -
1777122776 8.33° C 99% 1006.5 hPa 0 mm - 86 W/m² -
1777122472 8.33° C 99% 1006.5 hPa 0 mm - 86 W/m² -
1777122169 8.33° C 99% 1006.1 hPa 0 mm - 82 W/m² -
1777121864 8.33° C 99% 1006.2 hPa 0 mm - 86 W/m² -
1777121561 8.33° C 99% 1005.9 hPa 0 mm - 86 W/m² -
1777121258 8.33° C 99% 1006.1 hPa 0 mm - 77 W/m² -
1777120954 8.89° C 99% 1006 hPa 0 mm - 64 W/m² -
1777120650 8.89° C 99% 1006 hPa 0 mm - 53 W/m² -
1777120346 8.89° C 99% 1005.8 hPa 0 mm - 56 W/m² -

* Rain latest hour (hover to see other rain measurements)
** Current wind speed in m/s (hover to see current wind gust speed)